Pittsfield, IL

9:01 PM CST on December 13, 2017 (GMT -0600)
Pittsfield Penstone Municipal

Weather History for KPPQ - February, 2014

Change the Weather History Date:

Thursday, February 27, 2014

  Actual Average (KUIN) Record (KUIN)
Temperature  
Mean Temperature 19 °F -  
Max Temperature 26 °F 42 °F 73 °F (1976)
Min Temperature 12 °F 27 °F -8 °F (1934)
Degree Days  
Heating Degree Days 46    
Moisture  
Dew Point -1 °F    
Average Humidity 46    
Maximum Humidity 70    
Minimum Humidity 27    
Precipitation  
Precipitation 0.00 in - - ()
Sea Level Pressure  
Sea Level Pressure 30.09 in    
Wind  
Wind Speed 10 mph (NNW)    
Max Wind Speed 21 mph    
Max Gust Speed 25 mph    
Visibility 10 miles    
Events      
Averages and records for this station are not official NWS values.
T = Trace of Precipitation, MM = Missing Value Source: NWS Daily Summary

Daily Weather History Graph

Daily Weather History Graph

Search for Another Location

Airport or City:

Trip Planner

Search our weather history database for the weather conditions in past years. The results will help you decide how hot, cold, wet, or windy it might be!

Date:

Astronomy

Feb. 27, 2014 Rise Set
Actual Time 6:39 AM CST 5:53 PM CST
Civil Twilight 6:11 AM CST 6:20 PM CST
Nautical Twilight 5:40 AM CST 6:51 PM CST
Astronomical Twilight 5:09 AM CST 7:22 PM CST
Moon 5:11 AM CST (2/27) 4:19 PM CST (2/27)
Length of Visible Light 12h 08m
Length of Day
11h 14m
Waning Crescent, 4% of the Moon is Illuminated
Feb 27
Waning Crescent
Mar 1
New
Mar 8
First Quarter
Mar 16
Full
Mar 23
Last Quarter

Hourly Weather History & Observations

Time (CST) Temp. Windchill Dew Point Humidity Pressure Visibility Wind Dir Wind Speed Gust Speed Precip Events Conditions
12:15 AM 24.6 °F 12.7 °F 11.8 °F 58% 29.88 in 10.0 mi WSW 13.8 mph 18.4 mph N/A   Clear
12:35 AM 24.8 °F 14.6 °F 12.2 °F 59% 29.89 in 10.0 mi West 10.4 mph 16.1 mph N/A   Clear
12:55 AM 25.5 °F 14.9 °F 12.7 °F 58% 29.89 in 10.0 mi West 11.5 mph 21.9 mph N/A   Clear
1:15 AM 26.1 °F 14.5 °F 13.1 °F 58% 29.90 in 10.0 mi West 13.8 mph 20.7 mph N/A   Clear
1:35 AM 25.5 °F 14.9 °F 13.6 °F 61% 29.90 in 10.0 mi West 11.5 mph 19.6 mph N/A   Clear
1:55 AM 25.2 °F 15.7 °F 13.8 °F 62% 29.90 in 10.0 mi West 9.2 mph - N/A   Clear
2:15 AM 24.8 °F 14.0 °F 14.0 °F 64% 29.91 in 10.0 mi West 11.5 mph 17.3 mph N/A   Clear
2:35 AM 24.8 °F 16.1 °F 14.0 °F 64% 29.91 in 10.0 mi West 8.1 mph - N/A   Clear
2:55 AM 24.4 °F 15.6 °F 14.0 °F 65% 29.91 in 10.0 mi WNW 8.1 mph - N/A   Clear
3:15 AM 24.3 °F 15.4 °F 14.0 °F 65% 29.92 in 10.0 mi NW 8.1 mph - N/A   Scattered Clouds
3:35 AM 23.4 °F 9.2 °F 13.5 °F 66% 29.93 in 10.0 mi NNW 18.4 mph 24.2 mph N/A   Scattered Clouds
3:55 AM 21.4 °F 5.8 °F 11.3 °F 65% 29.95 in 10.0 mi NNW 20.7 mph 25.3 mph N/A   Clear
4:15 AM 18.5 °F 4.3 °F 10.0 °F 70% 29.97 in 10.0 mi North 15.0 mph - N/A   Scattered Clouds
4:35 AM 17.6 °F 3.2 °F 8.4 °F 67% 29.99 in 10.0 mi NNW 15.0 mph 20.7 mph N/A   Clear
4:55 AM 16.9 °F 5.5 °F 8.1 °F 68% 30.00 in 10.0 mi NNW 9.2 mph - N/A   Clear
5:15 AM 16.2 °F 3.9 °F 6.8 °F 67% 30.01 in 10.0 mi NNW 10.4 mph - N/A   Clear
5:35 AM 15.4 °F 1.0 °F -1.8 °F 47% 30.03 in 10.0 mi NW 13.8 mph - N/A   Scattered Clouds
5:55 AM 14.7 °F 1.4 °F -0.8 °F 50% 30.03 in 10.0 mi NW 11.5 mph 20.7 mph N/A   Clear
6:15 AM 14.0 °F 2.0 °F 1.4 °F 57% 30.05 in 10.0 mi NW 9.2 mph - N/A   Clear
6:35 AM 13.3 °F -0.5 °F 2.1 °F 61% 30.06 in 10.0 mi NW 11.5 mph - N/A   Clear
6:55 AM 13.1 °F -2.6 °F -0.9 °F 54% 30.07 in 10.0 mi NW 15.0 mph 23.0 mph N/A   Clear
7:15 AM 13.1 °F 0.9 °F -1.1 °F 53% 30.08 in 10.0 mi NW 9.2 mph - N/A   Scattered Clouds
7:35 AM 13.1 °F -2.0 °F -3.1 °F 49% 30.09 in 10.0 mi NW 13.8 mph 23.0 mph N/A   Scattered Clouds
7:55 AM 13.5 °F -2.1 °F -4.7 °F 44% 30.11 in 10.0 mi NW 15.0 mph 20.7 mph N/A   Scattered Clouds
8:15 AM 14.0 °F -2.5 °F -5.1 °F 43% 30.12 in 10.0 mi NNW 17.3 mph - N/A   Clear
8:35 AM 14.0 °F -1.4 °F -8.0 °F 37% 30.14 in 10.0 mi NNW 15.0 mph - N/A   Scattered Clouds
8:55 AM 14.2 °F -1.7 °F -12.5 °F 30% 30.15 in 10.0 mi North 16.1 mph 21.9 mph N/A   Scattered Clouds
9:15 AM 14.0 °F -2.0 °F -12.1 °F 31% 30.16 in 10.0 mi NNW 16.1 mph - N/A   Clear
9:35 AM 14.0 °F -0.8 °F -11.6 °F 31% 30.18 in 10.0 mi NW 13.8 mph - N/A   Clear
9:55 AM 14.5 °F 0.5 °F -11.2 °F 31% 30.18 in 10.0 mi NW 12.7 mph 19.6 mph N/A   Clear
10:15 AM 15.4 °F 1.0 °F -10.7 °F 31% 30.19 in 10.0 mi North 13.8 mph 20.7 mph N/A   Clear
10:36 AM 15.8 °F 2.7 °F -9.8 °F 32% 30.19 in 10.0 mi NW 11.5 mph 18.4 mph N/A   Scattered Clouds
10:55 AM 16.7 °F 1.5 °F -11.0 °F 29% 30.19 in 10.0 mi North 16.1 mph 20.7 mph N/A   Clear
11:15 AM 16.7 °F 5.3 °F -10.5 °F 29% 30.19 in 10.0 mi NW 9.2 mph - N/A   Scattered Clouds
11:35 AM 17.6 °F 5.7 °F -10.8 °F 28% 30.18 in 10.0 mi North 10.4 mph - N/A   Clear
11:55 AM 17.1 °F 5.8 °F -10.8 °F 28% 30.18 in 10.0 mi NNE 9.2 mph 19.6 mph N/A   Clear
12:15 PM 17.6 °F 9.3 °F -9.8 °F 29% 30.17 in 10.0 mi NNW 5.8 mph - N/A   Clear
12:35 PM 18.3 °F 9.1 °F -9.0 °F 29% 30.16 in 10.0 mi NNW 6.9 mph - N/A   Clear
12:55 PM 18.7 °F 7.8 °F -8.5 °F 30% 30.16 in 10.0 mi North 9.2 mph - N/A   Clear
1:15 PM 19.6 °F 10.6 °F -6.5 °F 31% 30.16 in 10.0 mi NNW 6.9 mph - N/A   Clear
1:35 PM 20.3 °F 13.8 °F -5.6 °F 32% 30.15 in 10.0 mi WNW 4.6 mph - N/A   Clear
1:55 PM 20.5 °F 12.8 °F -5.3 °F 32% 30.14 in 10.0 mi WNW 5.8 mph - N/A   Clear
2:15 PM 21.0 °F - -6.7 °F 29% 30.13 in 10.0 mi Calm Calm - N/A   Clear
2:35 PM 21.9 °F 13.4 °F -6.0 °F 29% 30.13 in 10.0 mi North 6.9 mph - N/A   Clear
2:55 PM 21.4 °F 13.8 °F -7.1 °F 28% 30.13 in 10.0 mi NW 5.8 mph - N/A   Clear
3:16 PM 21.2 °F 14.9 °F -7.8 °F 28% 30.13 in 10.0 mi NW 4.6 mph - N/A   Clear
3:35 PM 21.6 °F 13.0 °F -7.8 °F 27% 30.12 in 10.0 mi NE 6.9 mph - N/A   Clear
3:55 PM 21.7 °F - -6.9 °F 28% 30.13 in 10.0 mi Calm Calm - N/A   Clear
4:15 PM 21.2 °F 16.4 °F -6.9 °F 29% 30.12 in 10.0 mi NNW 3.5 mph - N/A   Clear
4:35 PM 21.2 °F 14.9 °F -7.1 °F 29% 30.12 in 10.0 mi NNW 4.6 mph - N/A   Clear
4:55 PM 21.0 °F - -6.5 °F 30% 30.13 in 10.0 mi Calm Calm - N/A   Clear
5:15 PM 20.7 °F 13.0 °F -5.6 °F 31% 30.13 in 10.0 mi North 5.8 mph - N/A   Clear
5:35 PM 20.1 °F 15.2 °F -4.7 °F 33% 30.13 in 10.0 mi North 3.5 mph - N/A   Clear
5:55 PM 19.2 °F 12.5 °F -2.9 °F 38% 30.13 in 10.0 mi NNE 4.6 mph - N/A   Clear
6:15 PM 18.5 °F 13.3 °F -3.5 °F 38% 30.13 in 10.0 mi NE 3.5 mph - N/A   Clear
6:35 PM 18.5 °F 10.4 °F -1.5 °F 42% 30.13 in 10.0 mi NE 5.8 mph - N/A   Scattered Clouds
6:55 PM 18.5 °F 10.4 °F -1.1 °F 42% 30.14 in 10.0 mi NE 5.8 mph - N/A   Overcast
7:15 PM 18.3 °F 10.2 °F -0.0 °F 45% 30.13 in 10.0 mi NE 5.8 mph - N/A   Overcast
7:35 PM 17.6 °F 8.2 °F 0.9 °F 48% 30.13 in 10.0 mi NE 6.9 mph - N/A   Overcast
7:55 PM 17.2 °F 6.8 °F 0.5 °F 48% 30.12 in 10.0 mi ENE 8.1 mph - N/A   Scattered Clouds
8:15 PM 16.5 °F 5.1 °F 0.7 °F 50% 30.12 in 10.0 mi NE 9.2 mph - N/A   Clear
8:35 PM 15.4 °F 5.6 °F 0.1 °F 51% 30.12 in 10.0 mi ENE 6.9 mph - N/A   Clear
8:55 PM 14.9 °F 5.0 °F -0.6 °F 50% 30.13 in 10.0 mi ENE 6.9 mph - N/A   Clear
9:15 PM 14.4 °F 4.3 °F -0.4 °F 52% 30.14 in 10.0 mi NE 6.9 mph - N/A   Clear
9:35 PM 14.0 °F 3.9 °F -0.6 °F 52% 30.15 in 10.0 mi ENE 6.9 mph - N/A   Clear
9:55 PM 13.8 °F 3.7 °F -0.0 °F 54% 30.15 in 10.0 mi ENE 6.9 mph - N/A   Clear
10:15 PM 13.5 °F 4.4 °F 0.3 °F 56% 30.16 in 10.0 mi NE 5.8 mph - N/A   Clear
10:35 PM 13.5 °F 3.3 °F 0.5 °F 56% 30.14 in 10.0 mi ENE 6.9 mph - N/A   Clear
10:55 PM 13.1 °F 2.8 °F 1.2 °F 59% 30.13 in 10.0 mi ENE 6.9 mph - N/A   Clear
11:15 PM 12.7 °F 1.4 °F 1.4 °F 61% 30.13 in 10.0 mi ENE 8.1 mph - N/A   Clear
11:35 PM 12.6 °F 2.2 °F 1.9 °F 63% 30.12 in 10.0 mi ENE 6.9 mph - N/A   Clear
11:55 PM 12.2 °F 4.3 °F 1.9 °F 64% 30.12 in 10.0 mi East 4.6 mph - N/A   Clear